User: anonymous   Login
Location: Bothwell
(42.3833°S, 147.0000°E)
Time: 05:56:24
(UTC+10:00)
Language:

DUCHIFAT 1 - Orbit

View from above orbital plane
View from above orbital plane
View from above satellite
View from above satellite

Ground track
Ground track

The orbit data is extracted from the following two-line orbital elements,

1 40021U 14033M   22267.52195784  .00003893  00000-0  37570-3 0  9996
2 40021  98.0204 219.5966 0013917  75.1222 285.1537 14.93412732449486
Epoch (UTC): 24 September 2022 12:31:37
Eccentricity: 0.0013917
inclination: 98.0204°
perigee height: 577 km
apogee height: 597 km
right ascension of ascending node: 219.5966°
argument of perigee: 75.1222°
revolutions per day: 14.93412732
mean anomaly at epoch: 285.1537°
orbit number at epoch: 44948

The dashed part of the orbit path shows where the satellite is in the earth's shadow,  

DLR